Location: ?????????
(38.0736°N, 23.2119°E)
Time: 13:57:12
(UTC+00:00)

Cosmos 2322 Rocket - Pass Details

Date: 18 April 2024
Orbit: 833 x 849 km, 71.0° (Epoch: 17 May)

Event Time Altitude Azimuth Distance (km) Brightness Sun altitude
Exits shadow 23:03:47 22° 350° (N) 1,763 4.3 -39.9°
Drops below altitude 10° 23:06:00 10° 5° (N) 2,450 5.3 -39.8°
Sets 23:08:40 0° 15° (NNE) 3,386 6.2 -39.7°
